Regional Weather Roundup
Issued by NWS

Home | Current Version | Previous Version | Text Only | Print | Product List | Glossary On
Versions: 1 2 3 4 5 6 7 8 9 10 11 12 13 14 15 16 17 18 19 20 21 22 23 24 25 26 27 28 29 30 31 32 33 34 35 36 37 38 39 40 41 42 43 44 45 46 47 48 49 50
000
ASUS43 KOAX 191710
RWRNE

WEATHER ROUNDUP FOR NEBRASKA
NATIONAL WEATHER SERVICE OMAHA NE
1200 PM CDT TUE SEP 19 2017

NOTES: SATELLITE DATA IS BEING USED TO AUGMENT CLOUD COVER ABOVE
       12000 FEET.
       "FAIR" INDICATES FEW OR NO CLOUDS BELOW 12,000 FEET WITH NO
       SIGNIFICANT WEATHER AND/OR OBSTRUCTIONS TO VISIBILITY.


NEZ001>004-019>022-054>056-191800-
NEBRASKA PANHANDLE

CITY           SKY/WX    TMP DP  RH WIND       PRES   REMARKS
SCOTTSBLUFF    CLOUDY    61  52  72 SE7       29.61F
ALLIANCE       CLOUDY    60  54  80 S8        29.62F
CHADRON        CLOUDY    75  37  25 W13       29.57S
GORDON         FAIR      66  56  70 SW6       29.58S
KIMBALL        CLOUDY    64  43  46 SW7       29.68S
SIDNEY         CLOUDY    64  49  57 W6        29.66S
$$

NEZ057>060-069>072-079>082-191800-
SOUTHWEST NEBRASKA

CITY           SKY/WX    TMP DP  RH WIND       PRES   REMARKS
NORTH PLATTE   CLOUDY    77  63  61 S12G21    29.61F
IMPERIAL       CLOUDY    77  47  34 S6        29.63F
LEXINGTON      SUNNY     80  63  56 S17       29.64F
MCCOOK         CLOUDY    84  59  42 S13       29.62F
OGALLALA       CLOUDY    73  53  47 S6        29.61F
$$

NEZ005>010-023>029-035>040-094-191800-
NORTH CENTRAL NEBRASKA

CITY           SKY/WX    TMP DP  RH WIND       PRES   REMARKS
VALENTINE      CLOUDY    73  63  70 S15       29.58S
AINSWORTH      CLOUDY    74  65  75 S22G29    29.57F
BROKEN BOW     CLOUDY    77  65  66 S17G26    29.63F
O`NEILL        CLOUDY    74  67  78 SE20      29.63F
ORD            CLOUDY    76  65  68 SE16G22   29.62F
THEDFORD       CLOUDY    74  64  70 S10       29.62R
$$

NEZ041-046>049-061>064-073>077-083>087-191800-
SOUTH CENTRAL NEBRASKA

CITY           SKY/WX    TMP DP  RH WIND       PRES   REMARKS
GRAND ISLAND   SUNNY     79  68  69 S14       29.67F
AURORA         SUNNY     80  67  65 S16G23    29.68F
HASTINGS       SUNNY     81  64  56 S16G23    29.69F
HEBRON         SUNNY     85  66  53 S20G26    29.70F
HOLDREGE       SUNNY     78  61  55 S17G23    29.66F
KEARNEY        SUNNY     80  66  62 S20       29.66F
YORK           SUNNY     82  66  57 S20       29.69F
$$

NEZ011>018-030>034-042>045-191800-
NORTHEAST NEBRASKA

CITY           SKY/WX    TMP DP  RH WIND       PRES   REMARKS
NORFOLK        CLOUDY    76  68  76 SE18G26   29.66F
ALBION         CLOUDY    78  69  73 S13G20    29.68F
BLAIR          SUNNY     79  68  69 SE12G20   29.77F
COLUMBUS       SUNNY     80  69  69 SE12      29.70F
FREMONT        SUNNY     79  68  67 SE13G21   29.74F
TEKAMAH        SUNNY     78  68  71 SE12G23   29.76F
WAYNE          CLOUDY    74  72  91 SE16G22   29.72F
$$

NEZ050>053-065>068-078-088>093-191800-
SOUTHEAST NEBRASKA

CITY           SKY/WX    TMP DP  RH WIND       PRES   REMARKS
LINCOLN        SUNNY     83  68  60 SE15      29.73F
OMAHA EPPLEY   MOSUNNY   80  68  66 SE20      29.77F
BEATRICE       SUNNY     85  68  56 S14G22    29.73F
FALLS CITY     SUNNY     83  67  58 SE18      29.78F
NEBRASKA CITY  SUNNY     80  71  74 SE14      29.78F
PLATTSMOUTH    SUNNY     80  69  68 SE15      29.78F
$$

NEZ044-045-051>053-067-191800-
OMAHA AREA

CITY           SKY/WX    TMP DP  RH WIND       PRES   REMARKS
OMAHA EPPLEY   MOSUNNY   80  68  66 SE20      29.77F
BLAIR          SUNNY     79  68  69 SE12G20   29.77F
FREMONT        SUNNY     79  68  67 SE13G21   29.74F
MILLARD        SUNNY     80  69  69 SE13G20   29.76F
OFFUTT AFB     SUNNY     81  68  65 SE18      29.77F
PLATTSMOUTH    SUNNY     80  69  68 SE15      29.78F
WAHOO          FAIR      81  67  60 SE18G24   29.73F
$$




USA.gov is the U.S. government's official web portal to all federal, state and local government web resources and services.